Погода в Уральске

Россия / Оренбургская область     51°35′19″N   58°38′52″E
темп.,
°C
ветер,
м/с
пор.,
м/с
влажн.,
%
обл.,
%
осадки,
мм/ч
давл.,
гПа
погр.,
м
12 мая, ср
ср1223:00+14вюв3345100 0.0 102731
02:00+12юв2249100 0.0 102814
05:00+11вюв1152100 0.0 102911
08:00+15в224450 0.0 1030206
11:00+20юв453291 0.0 10291387
14:00+22ююв3428100 0.0 10291758
17:00+22ююв332787 0.0 10281717
20:00+19юв113987 0.0 102811
13 мая, чт
чт1323:00+16ююв0040100 0.0 102811
02:00+14юз004384 0.0 102811
05:00+13всв014813 0.0 102810
08:00+18св11380 0.0 1029148
11:00+22вюв12280 0.0 10281235
14:00+25ю22230 0.0 10281913
17:00+25ююз21210 0.0 10271896
20:00+22юз22310 0.0 102613
14 мая, пт
пт1423:00+18зсз22320 0.0 102711
02:00+16ссз22410 0.0 102713
05:00+15ссз22490 0.0 102812
08:00+19с22420 0.0 1029169
11:00+25с11260 0.0 1028981
14:00+27юз22210 0.0 10272419
17:00+28юз32210 0.0 10262497
20:00+24зсз34340 0.0 102638
15 мая, сб
сб1523:00+20ссз44390 0.0 102650
02:00+18с33440 0.0 102623
05:00+17ссз22492 0.0 102612
08:00+21с11404 0.0 1027150
11:00+27с11275 0.0 1025888
14:00+29ююз22232 0.0 10242727
17:00+29юз22225 0.0 10233121
20:00+25ссз34371 0.0 102359
16 мая, вс
вс1623:00+21ссз33381 0.0 102325
02:00+19с12444 0.0 102213
05:00+18с22464 0.0 102311
08:00+22сз11380 0.0 1023157
11:00+27з01280 0.0 1022954
14:00+29ююз22235 0.0 10213116
17:00+30зюз22215 0.0 10203357
20:00+26сз223585 0.0 102020